Flag for Germany Weather past 2 weeks in Fürth, Bavaria, Germany

46 °F

Passing clouds.

Feels Like: 39 °F
Forecast: 47 / 49 °F
Wind: 18 mph from Southwest

Location: Nuernberg

Current Time: Nov 29, 2015 at 11:01:44 PM

Latest Report: Nov 29, 2015 at 10:20 PM

Visibility: N/A

Pressure: 29.98 "Hg

Humidity: 82%

Dew point: 41 °F

Location of FürthLocation

Historic Weather in Fürth — Graph


Fürth temperature yesterday

Maximum temperature yesterday: 37 °F (at 4:20 PM)
Minimum temperature yesterday: 27 °F (at 3:20 AM)
Average temperature yesterday: 33 °F

Past Weeks' High & Low Weather Summary

High61 °F (Nov 16, 12:50 PM)100% (Nov 20, 9:50 PM)30.27 "Hg (Nov 20, 9:50 PM)
Low27 °F (Nov 28, 3:20 AM)31% (Nov 16, 1:20 PM)29.42 "Hg (Nov 21, 12:20 PM)
Average42 °F85%29.93 "Hg
* Reported Nov 14 9:20 PM — Nov 29 9:20 PM, Fürth, Weather by CustomWeather, © 2015

Note: Actual official high and low records may vary slightly from our data, if they occured in-between our weather recording intervals... More about our weather records


Fürth weather history for previous 24 hours

Time TempWeatherWind HumidityBarometerVisibility
9:20 PM
Sun, Nov 29
46 °FLight rain. Passing clouds.13 mph82%30.01 "HgN/A
8:50 PM46 °FLight rain. Passing clouds.15 mph82%30.01 "HgN/A
8:20 PM46 °FPassing clouds.14 mph87%30.01 "HgN/A
7:50 PM46 °FPassing clouds.14 mph87%30.01 "HgN/A
7:20 PM46 °FPassing clouds.16 mph87%30.01 "HgN/A
6:50 PM45 °FPassing clouds.14 mph87%30.01 "HgN/A
6:20 PM45 °FLight rain. Passing clouds.15 mph87%30.01 "HgN/A
5:50 PM45 °FPartly cloudy.12 mph87%30.01 "HgN/A
5:20 PM45 °FLight rain. Passing clouds.10 mph87%30.01 "HgN/A
4:50 PM45 °FLight rain. Passing clouds.9 mph87%30.01 "HgN/A
4:20 PM45 °FLight rain. Passing clouds.15 mph87%30.01 "HgN/A
3:50 PM43 °FPartly sunny.17 mph93%29.98 "HgN/A
3:20 PM43 °FPartly sunny.16 mph93%29.98 "HgN/A
2:50 PM43 °FLight rain. Partly sunny.15 mph87%29.98 "HgN/A
2:20 PM43 °FLight rain. Partly sunny.13 mph87%30.01 "HgN/A
1:50 PM43 °FLight rain. Mostly cloudy.9 mph87%29.98 "HgN/A
1:20 PM41 °FLight rain. Mostly cloudy.10 mph93%30.01 "HgN/A
12:50 PM41 °FLight rain. Mostly cloudy.10 mph87%29.98 "HgN/A
12:20 PM39 °FLight rain. Mostly cloudy.10 mph93%30.01 "HgN/A
11:50 AM39 °FLight rain. Partly sunny.13 mph93%30.01 "HgN/A
11:20 AM39 °FLight rain. Partly sunny.10 mph87%30.01 "HgN/A
10:50 AM39 °FLight rain. Partly sunny.9 mph87%30.01 "HgN/A
10:20 AM39 °FLight rain. Partly sunny.8 mph87%30.01 "HgN/A
9:50 AM39 °FLight rain. Broken clouds.7 mph87%30.01 "HgN/A
9:20 AM39 °FLight rain. Broken clouds.12 mph87%30.01 "HgN/A
7:50 AM37 °FLight rain. Partly sunny.9 mph81%30.01 "HgN/A
7:20 AM39 °FLight rain. Passing clouds.7 mph75%30.01 "HgN/A
6:50 AM37 °FPassing clouds.7 mph81%30.01 "HgN/A
6:20 AM37 °FPassing clouds.7 mph75%30.01 "HgN/A
5:20 AM36 °FPassing clouds.8 mph81%30.01 "HgN/A
4:50 AM36 °FPartly cloudy.6 mph81%30.01 "HgN/A
4:20 AM36 °FPartly cloudy.6 mph81%30.04 "HgN/A
3:50 AM34 °FPassing clouds.7 mph87%30.04 "HgN/A
3:20 AM34 °FPassing clouds.6 mph87%30.04 "HgN/A
2:50 AM34 °FClear.6 mph87%30.07 "Hg10 mi
2:20 AM34 °FClear.6 mph87%30.07 "Hg10 mi
1:50 AM34 °FPassing clouds.5 mph87%30.09 "HgN/A
1:20 AM36 °FPassing clouds.6 mph81%30.09 "HgN/A
12:50 AM36 °FPassing clouds.8 mph81%30.09 "HgN/A
12:20 AM36 °FClear.9 mph81%30.09 "Hg10 mi
11:50 PM
Sat, Nov 28
36 °FPassing clouds.6 mph81%30.09 "HgN/A
Weather by CustomWeather, © 2015

See weather overviewHow to use our weather pages